Stündliche Wetter Aarle

Heute, 9 März, Dienstag

Zeit Temperatur Niederschläge Wind Luftdruck Luftfeuchtigkeit
00:00 +3°C° 0.1 mm 3 m/S 763 mmHg 86%
01:00 +3°C° 0.3 mm 4 m/S 762 mmHg 89%
02:00 +2°C° 0.3 mm 5 m/S 762 mmHg 91%
03:00 +2°C° 0.3 mm 5 m/S 761 mmHg 94%
04:00 +2°C° 0.3 mm 5 m/S 761 mmHg 93%
05:00 +2°C° 0.3 mm 5 m/S 761 mmHg 93%
06:00 +2°C° 0.3 mm 5 m/S 761 mmHg 93%
07:00 +3°C° 0.3 mm 5 m/S 761 mmHg 92%
08:00 +4°C° 0.3 mm 4 m/S 761 mmHg 91%
09:00 +5°C° 0.3 mm 4 m/S 761 mmHg 90%
10:00 +5°C° 0.2 mm 4 m/S 761 mmHg 85%
11:00 +6°C° 0.2 mm 5 m/S 761 mmHg 81%
12:00 +7°C° 0.2 mm 5 m/S 761 mmHg 77%
13:00 +7°C° 0.1 mm 5 m/S 761 mmHg 75%
14:00 +7°C° 0.1 mm 5 m/S 761 mmHg 74%
15:00 +6°C° 0.1 mm 5 m/S 761 mmHg 73%
16:00 +6°C° 0 mm 4 m/S 761 mmHg 76%
17:00 +5°C° 0 mm 3 m/S 761 mmHg 79%
18:00 +5°C° 0 mm 2 m/S 761 mmHg 82%
19:00 +5°C° 0 mm 2 m/S 762 mmHg 84%
20:00 +4°C° 0 mm 2 m/S 762 mmHg 85%
21:00 +4°C° 0 mm 2 m/S 762 mmHg 87%
22:00 +3°C° 0 mm 2 m/S 762 mmHg 88%
23:00 +3°C° 0 mm 2 m/S 762 mmHg 89%

Morgen, 10 März, Mittwoch

Zeit Temperatur Niederschläge Wind Luftdruck Luftfeuchtigkeit
00:00 +3°C° 0 mm 2 m/S 762 mmHg 90%
01:00 +2°C° 0 mm 2 m/S 762 mmHg 91%
02:00 +2°C° 0 mm 2 m/S 762 mmHg 92%
03:00 +2°C° 0 mm 2 m/S 762 mmHg 92%
04:00 +2°C° 0 mm 2 m/S 762 mmHg 93%
05:00 +3°C° 0 mm 2 m/S 762 mmHg 93%
06:00 +2°C° 0 mm 3 m/S 762 mmHg 94%
07:00 +3°C° 0 mm 3 m/S 762 mmHg 90%
08:00 +4°C° 0 mm 4 m/S 762 mmHg 87%
09:00 +5°C° 0 mm 4 m/S 762 mmHg 83%
10:00 +6°C° 0 mm 5 m/S 762 mmHg 78%
11:00 +7°C° 0 mm 5 m/S 762 mmHg 73%
12:00 +8°C° 0 mm 6 m/S 761 mmHg 67%
13:00 +8°C° 0 mm 6 m/S 761 mmHg 67%
14:00 +8°C° 0 mm 6 m/S 760 mmHg 66%
15:00 +8°C° 0 mm 6 m/S 760 mmHg 65%
16:00 +8°C° 0 mm 6 m/S 760 mmHg 67%
17:00 +7°C° 0 mm 5 m/S 759 mmHg 69%
18:00 +7°C° 0 mm 5 m/S 759 mmHg 71%
19:00 +7°C° 0.1 mm 6 m/S 758 mmHg 73%
20:00 +5°C° 0.1 mm 6 m/S 758 mmHg 75%
21:00 +5°C° 0.1 mm 7 m/S 757 mmHg 77%
22:00 +5°C° 0.3 mm 8 m/S 757 mmHg 79%
23:00 +5°C° 0.3 mm 8 m/S 756 mmHg 81%

übermorgen, 11 März, Donnerstag

Zeit Temperatur Niederschläge Wind Luftdruck Luftfeuchtigkeit
00:00 +5°C° 0.3 mm 9 m/S 755 mmHg 83%
01:00 +5°C° 0.1 mm 9 m/S 754 mmHg 84%
02:00 +5°C° 0.1 mm 9 m/S 753 mmHg 84%
03:00 +5°C° 0.1 mm 9 m/S 752 mmHg 84%
04:00 +6°C° 0 mm 9 m/S 751 mmHg 83%
05:00 +6°C° 0 mm 10 m/S 751 mmHg 81%
06:00 +6°C° 0 mm 10 m/S 750 mmHg 80%
07:00 +7°C° 0.5 mm 10 m/S 750 mmHg 82%
08:00 +7°C° 0.5 mm 10 m/S 749 mmHg 84%
09:00 +7°C° 0.5 mm 10 m/S 749 mmHg 86%
10:00 +9°C° 0.9 mm 10 m/S 749 mmHg 76%
11:00 +11°C° 0.9 mm 11 m/S 749 mmHg 65%
12:00 +12°C° 0.9 mm 11 m/S 749 mmHg 55%
13:00 +12°C° 0.1 mm 11 m/S 749 mmHg 56%
14:00 +11°C° 0.1 mm 10 m/S 749 mmHg 57%
15:00 +9°C° 0.1 mm 10 m/S 749 mmHg 58%
16:00 +8°C° 0.2 mm 9 m/S 750 mmHg 60%
17:00 +7°C° 0.2 mm 8 m/S 750 mmHg 63%
18:00 +6°C° 0.2 mm 8 m/S 750 mmHg 66%
19:00 +6°C° 0 mm 8 m/S 751 mmHg 66%
20:00 +5°C° 0 mm 8 m/S 752 mmHg 66%
21:00 +5°C° 0 mm 9 m/S 752 mmHg 67%
22:00 +5°C° 0 mm 8 m/S 753 mmHg 68%
23:00 +4°C° 0 mm 8 m/S 753 mmHg 69%

12 März, Freitag

Zeit Temperatur Niederschläge Wind Luftdruck Luftfeuchtigkeit
00:00 +4°C° 0 mm 8 m/S 754 mmHg 70%
01:00 +3°C° 0 mm 7 m/S 754 mmHg 71%
02:00 +3°C° 0 mm 7 m/S 755 mmHg 73%
03:00 +3°C° 0 mm 6 m/S 755 mmHg 74%
04:00 +3°C° 0 mm 6 m/S 755 mmHg 75%
05:00 +2°C° 0 mm 6 m/S 755 mmHg 76%
06:00 +2°C° 0 mm 6 m/S 755 mmHg 77%
07:00 +3°C° 0 mm 7 m/S 755 mmHg 75%
08:00 +4°C° 0 mm 8 m/S 755 mmHg 73%
09:00 +5°C° 0 mm 9 m/S 755 mmHg 71%
10:00 +5°C° 0 mm 9 m/S 755 mmHg 69%
11:00 +6°C° 0 mm 9 m/S 755 mmHg 67%
12:00 +7°C° 0 mm 9 m/S 754 mmHg 64%
13:00 +6°C° 0.4 mm 10 m/S 754 mmHg 68%
14:00 +6°C° 0.4 mm 10 m/S 753 mmHg 72%
15:00 +6°C° 0.4 mm 10 m/S 753 mmHg 75%
16:00 +5°C° 0.4 mm 8 m/S 753 mmHg 75%
17:00 +5°C° 0.4 mm 7 m/S 753 mmHg 75%
18:00 +5°C° 0.4 mm 5 m/S 754 mmHg 74%
19:00 +5°C° 0.1 mm 5 m/S 754 mmHg 75%
20:00 +4°C° 0.1 mm 6 m/S 754 mmHg 76%
21:00 +4°C° 0.1 mm 6 m/S 754 mmHg 77%
22:00 +4°C° 0 mm 6 m/S 754 mmHg 78%
23:00 +3°C° 0 mm 6 m/S 755 mmHg 78%

13 März, Samstag

Zeit Temperatur Niederschläge Wind Luftdruck Luftfeuchtigkeit
00:00 +3°C° 0 mm 6 m/S 755 mmHg 79%
01:00 +3°C° 0 mm 6 m/S 755 mmHg 81%
02:00 +3°C° 0 mm 6 m/S 755 mmHg 83%
03:00 +3°C° 0 mm 6 m/S 754 mmHg 86%
04:00 +3°C° 0 mm 6 m/S 754 mmHg 86%
05:00 +4°C° 0 mm 6 m/S 754 mmHg 85%
06:00 +4°C° 0 mm 7 m/S 754 mmHg 85%
07:00 +4°C° 0.2 mm 7 m/S 753 mmHg 85%
08:00 +4°C° 0.2 mm 8 m/S 753 mmHg 85%
09:00 +5°C° 0.2 mm 9 m/S 752 mmHg 85%
10:00 +5°C° 0.6 mm 9 m/S 751 mmHg 85%
11:00 +5°C° 0.6 mm 10 m/S 751 mmHg 86%
12:00 +5°C° 0.6 mm 10 m/S 750 mmHg 87%
13:00 +6°C° 1 mm 10 m/S 750 mmHg 86%
14:00 +6°C° 1 mm 10 m/S 749 mmHg 86%
15:00 +6°C° 1 mm 9 m/S 749 mmHg 85%
16:00 +6°C° 0.5 mm 9 m/S 749 mmHg 80%
17:00 +6°C° 0.5 mm 9 m/S 749 mmHg 75%
18:00 +6°C° 0.5 mm 8 m/S 749 mmHg 70%
19:00 +5°C° 0.3 mm 8 m/S 749 mmHg 72%
20:00 +4°C° 0.3 mm 8 m/S 749 mmHg 75%
21:00 +4°C° 0.3 mm 8 m/S 749 mmHg 77%
22:00 +4°C° 0.1 mm 8 m/S 749 mmHg 78%
23:00 +2°C° 0.1 mm 8 m/S 749 mmHg 79%

14 März, Sonntag

Zeit Temperatur Niederschläge Wind Luftdruck Luftfeuchtigkeit
00:00 +2°C° 0.1 mm 8 m/S 749 mmHg 80%
01:00 +1°C° 0.2 mm 8 m/S 749 mmHg 78%
02:00 +2°C° 0.2 mm 7 m/S 750 mmHg 76%
03:00 0°C° 0.2 mm 7 m/S 750 mmHg 75%
04:00 0°C° 0 mm 7 m/S 751 mmHg 74%
05:00 0°C° 0 mm 7 m/S 752 mmHg 73%
06:00 0°C° 0 mm 7 m/S 753 mmHg 73%
07:00 +2°C° 0 mm 7 m/S 753 mmHg 72%
08:00 +1°C° 0 mm 8 m/S 754 mmHg 71%
09:00 +2°C° 0 mm 8 m/S 755 mmHg 71%
10:00 +3°C° 0 mm 9 m/S 755 mmHg 68%
11:00 +3°C° 0 mm 9 m/S 755 mmHg 65%
12:00 +5°C° 0 mm 9 m/S 756 mmHg 63%
13:00 +5°C° 0 mm 9 m/S 756 mmHg 62%
14:00 +5°C° 0 mm 8 m/S 756 mmHg 61%
15:00 +5°C° 0 mm 8 m/S 756 mmHg 59%
16:00 +5°C° 0 mm 6 m/S 756 mmHg 64%
17:00 +5°C° 0 mm 5 m/S 757 mmHg 68%
18:00 +4°C° 0 mm 4 m/S 757 mmHg 72%
19:00 +4°C° 0 mm 4 m/S 757 mmHg 75%
20:00 +3°C° 0 mm 4 m/S 758 mmHg 78%
21:00 +3°C° 0 mm 4 m/S 758 mmHg 81%
22:00 +3°C° 0 mm 4 m/S 758 mmHg 81%
23:00 +2°C° 0 mm 5 m/S 758 mmHg 82%
Mehr zeigen

Wir brauchen deine Erlaubnis

Meteoprog und unser Service Anbieter werden persönliche Daten aufbewahren, so wie Cookies, Geräte Bezeichnung oder ähnliche Technologien von deinem Gerät und Prozess, so wie Persönliche Daten Inhalte und Werbungen, genauso wie social Media und den Verkehr zu analysieren.

  • Aufbewahrung und/oder Zugang zu deiner Geräte Informationen.

    Cookies, Geräte Bezeichnung oder andere Informationen, können aufbewahrt oder Zugang zu deinem Gerät erhalten, für den Grund, der oben angegeben wird.

  • Personalisierte Werbung und Inhalte, Messungen, Einblick in das Publikum und Produkt Entwicklung.

    Werbungen und Inhalte können personalisiert werden, basierend auf ein Profil. Mehr Daten können besser personalisierte Werbungen und Inhalte hinzufügen. Werbung und Inhalte können gezeigt und gemessen werden. Einblicke über das Publikum, welche die Werbung gesehen haben und den Inhalt, können abgeleitet werden. So wie Daten können genutzt werden, um es zu verbessern oder die Benutzer Erfahrung zu verbessern das System und die Software.

Wenn du “Ich stimme zu” klickst, erlaubst du uns, die Cookies zu benutzen die Geräte Bezeichnung, den Web oder ähnliche Technologien zu benutzen. Deine Settings, können in deinem Gerät bei deinem Browser geändert werden.

Für den bestimmten Zweck, berechtigten Interessen beruhen darauf, mehr als auf den Inhalt. Du kannst mehr darüber in unseren Privaten und Cookie Politik lesen.